Printer-friendly version
Follow the MPC on Twitter Follow the MPC on Facebook The MPC blog
Minor Planet Center

MPEC 2010-E73 : 2010 EE43

The following Minor Planet Electronic Circular may be linked-to from your own Web pages, but must not otherwise be redistributed electronically.

A form allowing access to any MPEC is at the bottom of this page.


Read MPEC 2010-E72 Read MPEC 2010-E74


M.P.E.C. 2010-E73                                Issued 2010 Mar. 15, 02:14 UT

     The Minor Planet Electronic Circulars contain information on unusual
         minor planets and routine data on comets.  They are published
   on behalf of Commission 20 of the International Astronomical Union by the
          Minor Planet Center, Smithsonian Astrophysical Observatory,
                          Cambridge, MA 02138, U.S.A.

             Prepared using the Tamkin Foundation Computer Network

                              MPC@CFA.HARVARD.EDU
       URL http://www.minorplanetcenter.org/iau/mpc.html  ISSN 1523-6714

                                   2010 EE43

Observations:
     K10E43E* C2010 03 13.26227 11 34 06.42 +14 56 34.9          20.4 V EE073703
     K10E43E  C2010 03 13.26802 11 34 06.81 +14 56 22.2          20.0 V EE073703
     K10E43E  C2010 03 13.27380 11 34 07.17 +14 56 11.5          19.7 V EE073703
     K10E43E  C2010 03 13.27950 11 34 07.46 +14 55 59.9          19.4 V EE073703
     K10E43E  C2010 03 13.28767 11 34 07.96 +14 55 44.2          19.2 V EE073703
     K10E43E  C2010 03 13.29417 11 34 08.36 +14 55 30.1          19.5 V EE073703
     K10E43E  C2010 03 13.30068 11 34 08.68 +14 55 17.2                 EE073703
     K10E43E  C2010 03 13.30719 11 34 09.15 +14 55 03.3          19.8 V EE073703
     K10E43E  C2010 03 13.41564 11 34 15.79 +14 51 14.1          19.7 R EE073H01
     K10E43E  C2010 03 13.42559 11 34 16.49 +14 50 52.7          19.5 R EE073H01
     K10E43E  C2010 03 13.43754 11 34 17.33 +14 50 27.0          19.3 R EE073H01
     K10E43E  C2010 03 13.44473 11 34 17.85 +14 50 11.4          19.2 R EE073H01
     K10E43E  C2010 03 13.45729 11 34 18.91 +14 49 49.1          19.5 R EE073926
     K10E43E  C2010 03 13.46140 11 34 19.20 +14 49 40.3          19.7 R EE073926
     K10E43E  C2010 03 13.46550 11 34 19.51 +14 49 31.6          19.7 R EE073926
     K10E43E KC2010 03 13.86346 11 35 05.65 +14 35 25.2          19.3 V EE073595
     K10E43E KC2010 03 13.86954 11 35 06.39 +14 35 10.1          19.8 V EE073A13
     K10E43E KC2010 03 13.87350 11 35 06.40 +14 35 04.8                 EE073595
     K10E43E KC2010 03 13.88356 11 35 07.05 +14 34 44.0                 EE073595
     K10E43E KC2010 03 13.89922 11 35 08.61 +14 34 09.5          20.0 V EE073A13
     K10E43E  C2010 03 13.90347 11 35 08.51 +14 34 02.9          19.3 R EE073473
     K10E43E  C2010 03 13.90486 11 35 08.58 +14 33 59.5          19.3 R EE073473
     K10E43E KC2010 03 13.93296 11 35 11.00 +14 33 01.5          19.2 R EE073B04
     K10E43E KC2010 03 13.93935 11 35 11.34 +14 32 48.3                 EE073204
     K10E43E KC2010 03 13.94204 11 35 11.63 +14 32 42.6          19.4 R EE073B04
     K10E43E KC2010 03 13.94269 11 35 11.69 +14 32 41.4          19.1 R EE073B04
     K10E43E KC2010 03 13.94775 11 35 11.91 +14 32 30.5          19.3 C EE073204
     K10E43E KC2010 03 13.95045 11 35 12.21 +14 32 25.4          19.6 R EE073B04
     K10E43E KC2010 03 13.95614 11 35 12.49 +14 32 13.0                 EE073204
     K10E43E KC2010 03 14.03260 11 35 17.51 +14 29 34.3          19.6 V EE073B33
     K10E43E KC2010 03 14.04059 11 35 18.06 +14 29 17.0          19.8 V EE073B33
     K10E43E KC2010 03 14.04802 11 35 18.60 +14 29 01.5          19.6 V EE073B33
     K10E43E  C2010 03 14.27088 11 35 43.68 +14 21 22.2          19.6 R EE073H01
     K10E43E  C2010 03 14.27763 11 35 44.10 +14 21 08.2          19.7 R EE073H01
     K10E43E  C2010 03 14.28512 11 35 44.58 +14 20 51.9          19.3 R EE073H01
     K10E43E  C2010 03 14.29346 11 35 45.11 +14 20 34.2          19.5 R EE073H01
     K10E43E  C2010 03 14.39090 11 35 51.67 +14 17 06.8          20.2 R EE073926
     K10E43E  C2010 03 14.39360 11 35 51.81 +14 17 00.5          19.8 R EE073926
     K10E43E  C2010 03 14.39631 11 35 51.99 +14 16 54.7          19.8 R EE073926
     K10E43E  C2010 03 14.41906 11 35 53.55 +14 16 04.1          19.3 R EE073651
     K10E43E  C2010 03 14.42015 11 35 53.65 +14 16 01.5          19.4 R EE073651
     K10E43E  C2010 03 14.42124 11 35 53.75 +14 15 59.1          19.2 R EE073651
     K10E43E  C2010 03 14.87416 11 36 45.11 +13 59 10.2          19.4 R EE073A99
     K10E43E  C2010 03 14.88603 11 36 45.93 +13 58 45.3          19.4 R EE073A99
     K10E43E  C2010 03 14.89904 11 36 46.88 +13 58 17.6          19.4 R EE073A99
     K10E43E  C2010 03 14.93108 11 36 49.36 +13 57 09.7          19.3 R EE073A24
     K10E43E  C2010 03 14.93501 11 36 49.68 +13 57 00.1          19.0 R EE073A24
     K10E43E  C2010 03 14.93919 11 36 49.90 +13 56 50.5          19.3 R EE073A24

Observer details:
204 Schiaparelli Observatory.  Observers L. Buzzi, F. Manca, A. Testa.
    Measurer L. Buzzi.  0.60-m f/4.64 reflector + CCD.
473 Remanzacco.  Observers L. Donato, V. Gonano, E. Guido, G. Sostero.  0.45-m
    f/4.4 Newtonian reflector + CCD.
595 Farra d'Isonzo.  Observers F. Piani, E. Pettarin.  Measurer F. Piani.
    0.40-m f/4.5 reflector + CCD.
651 Grasslands Observatory, Tucson.  Observer J. E. McGaha.  0.62-m f/5.1
    Newtonian reflector + CCD.
703 Catalina Sky Survey.  Observer R. E. Hill.  Measurers J. D. Ahern,
    E. C. Beshore, A. Boattini, G. J. Garradd, A. R. Gibbs, A. D. Grauer,
    R. E. Hill, R. A. Kowalski, S. M. Larson, R. H. McNaught.  0.68-m Schmidt
    + CCD.
926 Tenagra II Observatory.  Observers P. R. Holvorcem, M. Schwartz.  Measurer
    P. R. Holvorcem.  0.81-m f/7 Ritchey-Chretien + CCD.
A13 Observatoire Naef, Marly.  Observer P. Kocher.  0.5-m f/3.3 Hypergraph
    + CCD.
A24 New Millennium Observatory, Mozzate.  Observer E. Cozzi.  0.36-m f/7.6
    Schmidt-Cassegrain + CCD.
A99 Osservatorio del Monte Baldo.  Observer C. Flavio.  Measurer M. Claudio.
    0.4-m f/8 Ritchey-Chretien + CCD.
B04 OAVdA, Saint-Barthelemy.  Observer A. Carbognani.  0.81-m f/7.9 reflector
    + CCD.
B33 Libbiano Observatory, Peccioli.  Observers P. Bacci, R. Emilio.  Measurer
    P. Bacci.  0.5-m f/8 Ritchey-Chretien + CCD.
H01 Magdalena Ridge Observatory, Socorro.  Observers W. H. Ryan, E. V. Ryan.
    Measurer W. H. Ryan.  2.4-m f/8.9 reflector + CCD.

Orbital elements:
2010 EE43                                                Earth MOID = 0.0752 AU
Epoch 2010 Mar. 5.0 TT = JDT 2455260.5                  MPC
M 345.32475              (2000.0)            P               Q
n   0.58599677     Peri.  176.39049     -0.98900794     +0.14752993
a   1.4142925      Node    12.10686     -0.13681690     -0.88765289
e   0.2403892      Incl.    2.70824     -0.05607516     -0.43624221
P   1.68           H   24.2           G   0.15
From 48 observations 2010 Mar. 13-14.

Ephemeris:
2010 EE43                a,e,i = 1.41, 0.24, 3                   q = 1.0743
Date    TT    R. A. (2000) Decl.     Delta      r     Elong.  Phase     V
2010 03 15    11 36.91   +13 55.5    0.0885   1.081   168.4    10.7    19.8
2010 03 25    11 55.75   +06 27.6    0.0790   1.075   170.6     8.7    19.4
2010 04 04    12 18.88   -02 58.8    0.0759   1.075   171.5     7.9    19.3
2010 04 14    12 44.36   -12 27.6    0.0797   1.081   168.8    10.4    19.5
2010 04 24    13 10.17   -20 04.2    0.0904   1.093   164.9    13.9    20.0
2010 05 04    13 34.60   -25 08.0    0.107    1.110   161.4    16.8    20.5
2010 05 14    13 56.63   -27 59.1    0.130    1.133   158.2    19.3    21.0
2010 05 24    14 16.91   -29 20.1    0.160    1.159   154.7    21.9    21.6

Timothy B. Spahr             (C) Copyright 2010 MPC           M.P.E.C. 2010-E73

Read MPEC 2010-E72 Read MPEC 2010-E74


MPEC number:

Enter an MPEC number in one of the following forms:

  • 1997-B01 (the full form)
  • J97B01 (the packed version of the full form)
  • B01 (the abbreviated form)

Valid HTML 4.01!